Weather History for KPGD - May, 2013

Change the Weather History Date:

Wednesday, May 22, 2013

  Actual Average Record
Temperature  
Mean Temperature 78 °F -  
Max Temperature 90 °F 87 °F 97 °F (2011)
Min Temperature 66 °F 64 °F 62 °F (2004)
Cooling Degree Days 12    
Growing Degree Days 28 (Base 50)    
Moisture  
Dew Point 69 °F    
Average Humidity 76    
Maximum Humidity 97    
Minimum Humidity 48    
Precipitation  
Precipitation 0.00 in - - ()
Sea Level Pressure  
Sea Level Pressure 29.96 in    
Wind  
Wind Speed 4 mph (ENE)    
Max Wind Speed 15 mph    
Max Gust Speed 17 mph    
Visibility 10 miles    
Events      
Averages and records for this station are not official NWS values.
T = Trace of Precipitation, MM = Missing Value Source: NWS Daily Summary

Daily Weather History Graph

Daily Weather History Graph

Search for Another Location

Airport or City:

Trip Planner

Search our weather history database for the weather conditions in past years. The results will help you decide how hot, cold, wet, or windy it might be!

Date:

Astronomy

May. 22, 2013 Rise Set
Actual Time 6:36 AM EDT 8:12 PM EDT
Civil Twilight 6:11 AM EDT 8:38 PM EDT
Nautical Twilight 5:40 AM EDT 9:09 PM EDT
Astronomical Twilight 5:08 AM EDT 9:41 PM EDT
Moon 5:45 PM EDT (5/22) 4:25 AM EDT (5/22)
Length of Visible Light 14h 27m
Length of Day
13h 35m
Waxing Gibbous, 91% of the Moon is Illuminated
May 22
Waxing Gibbous
May 25
Full
May 31
Last Quarter
Jun 8
New
Jun 16
First Quarter

Hourly Weather History & Observations

Time (EDT) Temp. Heat Index Dew Point Humidity Pressure Visibility Wind Dir Wind Speed Gust Speed Precip Events Conditions
12:53 AM 68.0 °F - 66.0 °F 93% 29.97 in 10.0 mi East 3.5 mph - N/A   Clear
1:53 AM 66.9 °F - 66.0 °F 97% 29.96 in 10.0 mi ENE 3.5 mph - N/A   Clear
2:53 AM 66.9 °F - 64.9 °F 93% 29.95 in 10.0 mi East 4.6 mph - N/A   Clear
3:53 AM 66.9 °F - 66.0 °F 97% 29.94 in 10.0 mi ESE 4.6 mph - N/A   Clear
4:53 AM 69.1 °F - 66.9 °F 93% 29.94 in 10.0 mi East 3.5 mph - N/A   Clear
5:53 AM 68.0 °F - 66.9 °F 96% 29.95 in 10.0 mi Calm Calm - N/A   Clear
6:53 AM 66.9 °F - 66.0 °F 97% 29.96 in 6.0 mi NE 3.5 mph - N/A   Clear
7:53 AM 71.1 °F - 69.1 °F 93% 29.96 in 10.0 mi Calm Calm - N/A   Clear
8:53 AM 77.0 °F - 71.1 °F 82% 29.97 in 10.0 mi SE 4.6 mph - N/A   Clear
9:53 AM 80.1 °F 83.6 °F 71.1 °F 74% 29.98 in 10.0 mi Calm Calm - N/A   Clear
10:33 AM 80.6 °F 83.9 °F 69.8 °F 70% 29.98 in 10.0 mi West 4.6 mph - N/A   Mostly Cloudy
10:44 AM 82.4 °F 86.3 °F 69.8 °F 66% 29.98 in 10.0 mi West 3.5 mph - N/A   Mostly Cloudy
10:53 AM 81.0 °F 84.4 °F 70.0 °F 69% 29.99 in 10.0 mi Variable 3.5 mph - N/A   Mostly Cloudy
11:18 AM 84.2 °F 89.6 °F 71.6 °F 66% 29.98 in 10.0 mi Calm Calm - N/A   Mostly Cloudy
11:53 AM 84.9 °F 89.4 °F 70.0 °F 61% 29.99 in 10.0 mi WSW 4.6 mph - N/A   Scattered Clouds
12:53 PM 87.1 °F 91.3 °F 69.1 °F 55% 29.98 in 10.0 mi West 5.8 mph - N/A   Clear
1:53 PM 88.0 °F 93.8 °F 71.1 °F 57% 29.96 in 10.0 mi West 11.5 mph 17.3 mph N/A   Clear
2:53 PM 89.1 °F 92.1 °F 66.9 °F 48% 29.94 in 10.0 mi NW 8.1 mph - N/A   Clear
3:53 PM 88.0 °F 93.8 °F 71.1 °F 57% 29.91 in 10.0 mi West 9.2 mph 16.1 mph N/A   Mostly Cloudy
4:53 PM 88.0 °F 92.1 °F 69.1 °F 53% 29.91 in 10.0 mi WNW 15.0 mph - N/A   Clear
5:18 PM 86.0 °F 90.4 °F 69.8 °F 58% 29.93 in 10.0 mi NNE 13.8 mph - N/A   Scattered Clouds
5:30 PM 82.4 °F 86.3 °F 69.8 °F 66% 29.93 in 10.0 mi ENE 13.8 mph - N/A   Scattered Clouds
5:53 PM 82.9 °F 86.5 °F 69.1 °F 63% 29.94 in 10.0 mi East 12.7 mph - N/A   Clear
6:53 PM 80.1 °F 82.9 °F 69.1 °F 69% 29.93 in 10.0 mi East 6.9 mph - N/A   Clear
7:53 PM 79.0 °F - 69.1 °F 72% 29.95 in 10.0 mi Calm Calm - N/A   Clear
8:53 PM 75.0 °F - 70.0 °F 84% 29.95 in 10.0 mi East 3.5 mph - N/A   Clear
9:53 PM 73.0 °F - 70.0 °F 90% 29.97 in 10.0 mi Calm Calm - N/A   Clear
10:53 PM 73.9 °F - 70.0 °F 87% 29.98 in 10.0 mi SE 4.6 mph - N/A   Clear
11:53 PM 73.0 °F - 70.0 °F 90% 29.98 in 10.0 mi Calm Calm - N/A   Clear